Simultaneous Nadir Overpasses (SNOs) Predictions

Prediction of SNOs between GOES-16 and NOAA-19 Satellite Orbit:

Table of predicted SNOs for the next 14.0 days since TLE Epoch: 7/19/2019
Index Date Time (GOES-16) GOES-16 Lat,Lon NOAA-19 Lat,Lon Distance(km) Time Diff (sec)
1 07/19/2019 22:18:30 0.02, -75.19 -0.98, -79.41 482.69 80
2 07/20/2019 22:06:52 0.02, -75.19 -0.29, -76.58 158.45 80
3 07/21/2019 21:57:54 0.02, -75.19 0.34, -73.73 166.02 80
4 07/22/2019 21:46:16 0.03, -75.19 1.03, -70.90 490.59 80
5 07/24/2019 10:19:03 -0.03, -75.21 0.79, -78.74 402.87 80
6 07/25/2019 10:07:25 -0.03, -75.22 0.10, -75.91 78.08 80
7 07/26/2019 09:53:07 -0.03, -75.22 -0.53, -73.06 246.87 80
8 07/28/2019 22:16:54 0.04, -75.23 -0.60, -78.06 322.93 80
9 07/29/2019 22:05:15 0.04, -75.23 0.04, -75.22 2.17 80
10 07/30/2019 21:53:38 0.04, -75.24 0.73, -72.38 327.08 80
11 08/02/2019 10:14:45 -0.05, -75.28 0.45, -77.38 240.37 80




NCC Satellite Simultaneous Nadir Overpasses (SNOs) Prediction Service
